Regional Weather Roundup
Issued by NWS

Home | Current Version | Previous Version | Text Only | Print | Product List | Glossary On
Versions: 1 2 3 4 5 6 7 8 9 10 11 12 13 14 15 16 17 18 19 20 21 22 23 24 25 26 27 28 29 30 31 32 33 34 35 36 37 38 39 40 41 42 43 44 45 46 47 48 49 50
000
ASUS44 KBMX 061410
RWRAL

ALABAMA REGIONAL WEATHER ROUNDUP
NATIONAL WEATHER SERVICE BIRMINGHAM AL
900 AM CDT WED MAY 06 2015

NOTE: "FAIR" INDICATES FEW OR NO CLOUDS BELOW 12,000 FEET
WITH NO SIGNIFICANT WEATHER AND/OR OBSTRUCTIONS TO VISIBILITY.

THE REMARK "TC" DENOTES TEMPERATURE IN DEGREES CELSIUS.

ALZ001>011-014-016>018-020-061500-
NORTH ALABAMA

CITY           SKY/WX    TMP DP  RH WIND       PRES   REMARKS
MUSCLE SHOALS  SUNNY     71  56  58 S5        30.22R
HUNTSVILLE     SUNNY     74  56  53 SE9       30.21S
DECATUR        SUNNY     70  58  65 SE7       30.22R
HALEYVILLE       N/A     70  58  65 MISG      30.24R
GADSDEN        SUNNY     68  55  64 E3        30.22S
$$

ALZ012-013-022-023-030>036-040>044-061500-
WEST CENTRAL ALABAMA

CITY           SKY/WX    TMP DP  RH WIND       PRES   REMARKS
TUSCALOOSA     MOSUNNY   72  58  61 SE5       30.19R
$$

ALZ015-024>027-033>036-040>044-061500-
CENTRAL ALABAMA

CITY           SKY/WX    TMP DP  RH WIND       PRES   REMARKS
BIRMINGHAM     MOSUNNY   71  57  61 E7        30.22S
MONTGOMERY     SUNNY     72  58  61 SE6       30.18S
SHELBY CO ARPT SUNNY     68  58  70 CALM      30.21R
MAXWELL AFB    SUNNY     70  60  69 NE5       30.17F
GREENVILLE     FAIR      73  60  63 SE7       30.16
$$

ALZ019-021-028-029-037-038-045>048-061500-
EAST CENTRAL ALABAMA

CITY           SKY/WX    TMP DP  RH WIND       PRES   REMARKS
ANNISTON       SUNNY     68  55  63 E7        30.22F
ALEXANDER CITY SUNNY     67  55  66 CALM      30.21S
AUBURN         SUNNY    N/A N/A N/A E8        30.21S
$$

ALZ051>064-061500-
SOUTHWEST ALABAMA

CITY           SKY/WX    TMP DP  RH WIND       PRES   REMARKS
MOBILE         MOSUNNY   74  64  71 E9        30.14R
BROOKLEY FIELD SUNNY     73  64  73 E6        30.15R
EVERGREEN      SUNNY     72  61  68 SE6       30.16R
$$

ALZ049-050-065>069-061500-
SOUTHEAST ALABAMA

CITY           SKY/WX    TMP DP  RH WIND       PRES   REMARKS
DOTHAN         SUNNY     72  61  68 E10       30.19S
OZARK          SUNNY     73  61  66 E9        30.15S
TROY           SUNNY     72  61  68 E7        30.18S
EUFAULA        FAIR      74  62  66 VRB5      30.18
$$


USA.gov is the U.S. government's official web portal to all federal, state and local government web resources and services.